Time,TemperatureF,DewpointF,PressureIn,WindDirection,WindDirectionDegrees,WindSpeedMPH,WindSpeedGustMPH,Humidity,HourlyPrecipIn,Conditions,Clouds,dailyrainin,SoftwareType,DateUTC
2013-03-28 00:00:00,32.9,31.6,30.04,WNW,284,4.0,4.0,95,0.00,,,0.07,Wunderground v.1.15,2013-03-28 04:00:00,
2013-03-28 00:05:00,32.9,31.6,30.04,WNW,284,4.0,4.0,95,0.00,,,0.00,Wunderground v.1.15,2013-03-28 04:05:00,
2013-03-28 00:15:00,32.9,31.6,30.04,WNW,283,2.0,3.0,95,0.00,,,0.00,Wunderground v.1.15,2013-03-28 04:15:00,
2013-03-28 00:20:00,32.9,31.6,30.04,WNW,291,3.0,4.0,95,0.00,,,0.00,Wunderground v.1.15,2013-03-28 04:20:00,
2013-03-28 00:25:00,32.9,31.6,30.04,West,278,4.0,4.0,95,0.00,,,0.00,Wunderground v.1.15,2013-03-28 04:25:00,
2013-03-28 00:35:00,32.9,31.6,30.04,West,275,4.0,5.0,95,0.00,,,0.00,Wunderground v.1.15,2013-03-28 04:35:00,
2013-03-28 00:45:00,32.9,31.6,30.03,WNW,284,3.0,4.0,95,0.00,,,0.00,Wunderground v.1.15,2013-03-28 04:45:00,
2013-03-28 00:55:00,32.9,31.6,30.03,West,280,3.0,6.0,95,0.00,,,0.00,Wunderground v.1.15,2013-03-28 04:55:00,
2013-03-28 01:05:00,32.9,31.6,30.04,West,275,3.0,4.0,95,0.00,,,0.00,Wunderground v.1.15,2013-03-28 05:05:00,
2013-03-28 01:15:00,32.9,31.6,30.03,West,274,3.0,3.0,95,0.00,,,0.00,Wunderground v.1.15,2013-03-28 05:15:00,
2013-03-28 01:20:00,32.9,31.6,30.03,West,273,3.0,3.0,95,0.00,,,0.00,Wunderground v.1.15,2013-03-28 05:20:00,
2013-03-28 01:30:00,32.9,31.6,30.04,West,279,3.0,5.0,95,0.00,,,0.00,Wunderground v.1.15,2013-03-28 05:30:00,
2013-03-28 01:35:00,32.9,31.6,30.04,West,273,3.0,5.0,95,0.00,,,0.00,Wunderground v.1.15,2013-03-28 05:35:00,
2013-03-28 01:45:00,32.8,31.5,30.04,West,273,3.0,4.0,95,0.00,,,0.00,Wunderground v.1.15,2013-03-28 05:45:00,
2013-03-28 01:55:00,32.9,31.6,30.04,West,273,3.0,5.0,95,0.00,,,0.00,Wunderground v.1.15,2013-03-28 05:55:00,
2013-03-28 02:00:00,32.8,31.5,30.04,West,275,2.0,3.0,95,0.00,,,0.00,Wunderground v.1.15,2013-03-28 06:00:00,
2013-03-28 02:10:00,32.8,31.5,30.04,WNW,292,2.0,3.0,95,0.00,,,0.00,Wunderground v.1.15,2013-03-28 06:10:00,
2013-03-28 02:15:00,32.7,31.4,30.04,WSW,256,3.0,3.0,95,0.00,,,0.00,Wunderground v.1.15,2013-03-28 06:15:00,
2013-03-28 02:25:00,32.7,31.4,30.04,West,273,3.0,4.0,95,0.00,,,0.00,Wunderground v.1.15,2013-03-28 06:25:00,
2013-03-28 02:35:00,32.7,31.4,30.04,West,281,4.0,4.0,95,0.00,,,0.00,Wunderground v.1.15,2013-03-28 06:35:00,
2013-03-28 02:45:00,32.7,31.4,30.04,West,275,3.0,3.0,95,0.00,,,0.00,Wunderground v.1.15,2013-03-28 06:45:00,
2013-03-28 02:50:00,32.7,31.4,30.04,WNW,282,4.0,4.0,95,0.00,,,0.00,Wunderground v.1.15,2013-03-28 06:50:00,
2013-03-28 03:00:00,32.7,31.4,30.04,WNW,284,3.0,6.0,95,0.00,,,0.00,Wunderground v.1.15,2013-03-28 07:00:00,
2013-03-28 03:10:00,32.6,31.3,30.04,West,278,3.0,3.0,95,0.00,,,0.00,Wunderground v.1.15,2013-03-28 07:10:00,
2013-03-28 03:20:00,32.6,31.3,30.04,West,275,3.0,3.0,95,0.00,,,0.00,Wunderground v.1.15,2013-03-28 07:20:00,
2013-03-28 03:25:00,32.5,31.0,30.04,West,281,4.0,4.0,94,0.00,,,0.00,Wunderground v.1.15,2013-03-28 07:25:00,
2013-03-28 03:35:00,32.5,31.0,30.04,West,279,3.0,4.0,94,0.00,,,0.00,Wunderground v.1.15,2013-03-28 07:35:00,
2013-03-28 03:45:00,32.5,31.0,30.04,West,279,3.0,3.0,94,0.00,,,0.00,Wunderground v.1.15,2013-03-28 07:45:00,
2013-03-28 03:55:00,32.5,31.0,30.04,West,276,4.0,4.0,94,0.00,,,0.00,Wunderground v.1.15,2013-03-28 07:55:00,
2013-03-28 04:05:00,32.5,31.0,30.04,WNW,282,4.0,4.0,94,0.00,,,0.00,Wunderground v.1.15,2013-03-28 08:05:00,
2013-03-28 04:15:00,32.5,31.0,30.04,West,281,3.0,3.0,94,0.00,,,0.00,Wunderground v.1.15,2013-03-28 08:15:00,
2013-03-28 04:25:00,32.5,31.0,30.04,WNW,282,2.0,3.0,94,0.00,,,0.00,Wunderground v.1.15,2013-03-28 08:25:00,
2013-03-28 04:35:00,32.5,31.0,30.04,West,268,2.0,3.0,94,0.00,,,0.00,Wunderground v.1.15,2013-03-28 08:35:00,
2013-03-28 04:45:00,32.5,31.0,30.05,West,277,3.0,3.0,94,0.00,,,0.00,Wunderground v.1.15,2013-03-28 08:45:00,
2013-03-28 04:55:00,32.5,31.2,30.05,WNW,283,3.0,5.0,95,0.00,,,0.00,Wunderground v.1.15,2013-03-28 08:55:00,
2013-03-28 05:00:00,32.5,31.2,30.05,West,281,3.0,3.0,95,0.00,,,0.00,Wunderground v.1.15,2013-03-28 09:00:00,
2013-03-28 05:10:00,32.5,31.2,30.05,WNW,284,4.0,4.0,95,0.00,,,0.00,Wunderground v.1.15,2013-03-28 09:10:00,
2013-03-28 05:15:00,32.5,31.2,30.05,WNW,284,3.0,4.0,95,0.00,,,0.00,Wunderground v.1.15,2013-03-28 09:15:00,
2013-03-28 05:20:00,32.5,31.2,30.05,WNW,283,3.0,10.0,95,0.00,,,0.00,Wunderground v.1.15,2013-03-28 09:20:00,
2013-03-28 05:30:00,32.5,31.2,30.05,WNW,282,4.0,4.0,95,0.00,,,0.00,Wunderground v.1.15,2013-03-28 09:30:00,
2013-03-28 05:40:00,32.6,31.3,30.06,WNW,284,4.0,4.0,95,0.00,,,0.00,Wunderground v.1.15,2013-03-28 09:40:00,
2013-03-28 05:50:00,32.6,31.3,30.06,West,277,4.0,4.0,95,0.00,,,0.00,Wunderground v.1.15,2013-03-28 09:50:00,
2013-03-28 05:55:00,32.6,31.3,30.06,WNW,285,3.0,4.0,95,0.00,,,0.00,Wunderground v.1.15,2013-03-28 09:55:00,
2013-03-28 06:05:00,32.7,31.4,30.06,WNW,288,3.0,3.0,95,0.00,,,0.00,Wunderground v.1.15,2013-03-28 10:05:00,
2013-03-28 06:15:00,32.8,31.5,30.07,WNW,284,4.0,4.0,95,0.00,,,0.00,Wunderground v.1.15,2013-03-28 10:15:00,
2013-03-28 06:25:00,32.8,31.5,30.07,WNW,286,3.0,5.0,95,0.00,,,0.00,Wunderground v.1.15,2013-03-28 10:25:00,
2013-03-28 06:35:00,32.8,31.5,30.07,WNW,287,3.0,7.0,95,0.00,,,0.00,Wunderground v.1.15,2013-03-28 10:35:00,
2013-03-28 06:45:00,32.8,31.5,30.07,WNW,287,2.0,3.0,95,0.00,,,0.00,Wunderground v.1.15,2013-03-28 10:45:00,
2013-03-28 06:50:00,32.9,31.6,30.07,WNW,285,2.0,2.0,95,0.00,,,0.00,Wunderground v.1.15,2013-03-28 10:50:00,
2013-03-28 07:00:00,32.9,31.6,30.07,West,280,3.0,5.0,95,0.00,,,0.00,Wunderground v.1.15,2013-03-28 11:00:00,
2013-03-28 07:10:00,33.0,31.7,30.08,WNW,302,4.0,4.0,95,0.00,,,0.00,Wunderground v.1.15,2013-03-28 11:10:00,
2013-03-28 07:20:00,33.0,31.7,30.08,WNW,290,4.0,4.0,95,0.00,,,0.00,Wunderground v.1.15,2013-03-28 11:20:00,
2013-03-28 07:25:00,33.0,31.7,30.08,WNW,291,3.0,4.0,95,0.00,,,0.00,Wunderground v.1.15,2013-03-28 11:25:00,
2013-03-28 07:30:00,33.1,31.8,30.08,WNW,288,3.0,3.0,95,0.00,,,0.00,Wunderground v.1.15,2013-03-28 11:30:00,
2013-03-28 07:40:00,33.2,31.9,30.09,WNW,289,3.0,3.0,95,0.00,,,0.00,Wunderground v.1.15,2013-03-28 11:40:00,
2013-03-28 07:50:00,33.3,32.0,30.09,WNW,296,3.0,3.0,95,0.00,,,0.00,Wunderground v.1.15,2013-03-28 11:50:00,
2013-03-28 07:55:00,33.3,32.0,30.09,WNW,294,3.0,4.0,95,0.00,,,0.00,Wunderground v.1.15,2013-03-28 11:55:00,
2013-03-28 08:05:00,33.5,32.2,30.10,WNW,286,3.0,4.0,95,0.00,,,0.00,Wunderground v.1.15,2013-03-28 12:05:00,
2013-03-28 08:15:00,33.6,32.3,30.10,WNW,287,2.0,3.0,95,0.00,,,0.00,Wunderground v.1.15,2013-03-28 12:15:00,
2013-03-28 08:25:00,33.7,32.4,30.10,West,280,3.0,3.0,95,0.00,,,0.00,Wunderground v.1.15,2013-03-28 12:25:00,
2013-03-28 08:35:00,33.9,32.6,30.10,WNW,287,4.0,4.0,95,0.00,,,0.00,Wunderground v.1.15,2013-03-28 12:35:00,
2013-03-28 08:45:00,34.1,32.8,30.10,WNW,283,4.0,4.0,95,0.00,,,0.00,Wunderground v.1.15,2013-03-28 12:45:00,
2013-03-28 08:50:00,34.2,32.9,30.10,WNW,285,3.0,4.0,95,0.00,,,0.00,Wunderground v.1.15,2013-03-28 12:50:00,
2013-03-28 09:00:00,34.4,33.1,30.11,WNW,298,3.0,3.0,95,0.00,,,0.00,Wunderground v.1.15,2013-03-28 13:00:00,
2013-03-28 09:10:00,34.4,33.1,30.11,West,279,4.0,4.0,95,0.00,,,0.00,Wunderground v.1.15,2013-03-28 13:10:00,
2013-03-28 09:20:00,34.7,33.4,30.11,WNW,283,5.0,5.0,95,0.00,,,0.00,Wunderground v.1.15,2013-03-28 13:20:00,
2013-03-28 09:30:00,35.0,33.7,30.11,WNW,292,4.0,5.0,95,0.00,,,0.00,Wunderground v.1.15,2013-03-28 13:30:00,
2013-03-28 09:40:00,35.3,33.7,30.11,NW,310,5.0,5.0,94,0.00,,,0.00,Wunderground v.1.15,2013-03-28 13:40:00,
2013-03-28 09:45:00,35.6,34.0,30.11,WNW,284,5.0,10.0,94,0.00,,,0.00,Wunderground v.1.15,2013-03-28 13:45:00,
2013-03-28 09:55:00,36.0,34.4,30.12,West,269,5.0,6.0,94,0.00,,,0.00,Wunderground v.1.15,2013-03-28 13:55:00,
2013-03-28 10:05:00,36.5,34.7,30.12,West,280,5.0,7.0,93,0.00,,,0.00,Wunderground v.1.15,2013-03-28 14:05:00,
2013-03-28 10:10:00,36.6,34.5,30.12,WNW,297,5.0,5.0,92,0.00,,,0.00,Wunderground v.1.15,2013-03-28 14:10:00,
2013-03-28 10:20:00,37.1,34.7,30.12,NW,304,5.0,5.0,91,0.00,,,0.00,Wunderground v.1.15,2013-03-28 14:20:00,
2013-03-28 10:25:00,37.3,34.6,30.12,NW,310,6.0,6.0,90,0.00,,,0.00,Wunderground v.1.15,2013-03-28 14:25:00,
2013-03-28 10:35:00,37.4,34.5,30.13,NW,305,6.0,8.0,89,0.00,,,0.00,Wunderground v.1.15,2013-03-28 14:35:00,
2013-03-28 10:40:00,37.8,34.8,30.12,West,259,5.0,7.0,89,0.00,,,0.00,Wunderground v.1.15,2013-03-28 14:40:00,
2013-03-28 10:50:00,38.0,34.8,30.13,WNW,284,6.0,6.0,88,0.00,,,0.00,Wunderground v.1.15,2013-03-28 14:50:00,
2013-03-28 11:00:00,38.4,35.2,30.13,WNW,288,6.0,7.0,88,0.00,,,0.00,Wunderground v.1.15,2013-03-28 15:00:00,
2013-03-28 11:10:00,39.0,35.5,30.13,WNW,292,4.0,6.0,87,0.00,,,0.00,Wunderground v.1.15,2013-03-28 15:10:00,
2013-03-28 11:15:00,39.3,35.5,30.13,WNW,288,4.0,6.0,86,0.00,,,0.00,Wunderground v.1.15,2013-03-28 15:15:00,
2013-03-28 11:25:00,39.4,35.6,30.13,WNW,288,5.0,5.0,86,0.00,,,0.00,Wunderground v.1.15,2013-03-28 15:25:00,
2013-03-28 11:35:00,40.3,36.1,30.13,West,276,4.0,5.0,85,0.00,,,0.00,Wunderground v.1.15,2013-03-28 15:35:00,
2013-03-28 11:45:00,40.7,35.6,30.13,WNW,302,5.0,9.0,82,0.00,,,0.00,Wunderground v.1.15,2013-03-28 15:45:00,
2013-03-28 11:50:00,40.8,36.0,30.13,WNW,290,5.0,5.0,83,0.00,,,0.00,Wunderground v.1.15,2013-03-28 15:50:00,
2013-03-28 12:00:00,40.9,35.5,30.13,West,269,5.0,8.0,81,0.00,,,0.00,Wunderground v.1.15,2013-03-28 16:00:00,
2013-03-28 12:05:00,40.8,35.4,30.13,West,266,6.0,8.0,81,0.00,,,0.00,Wunderground v.1.15,2013-03-28 16:05:00,
2013-03-28 12:15:00,41.2,36.1,30.13,WNW,282,5.0,6.0,82,0.00,,,0.00,Wunderground v.1.15,2013-03-28 16:15:00,
2013-03-28 12:25:00,41.7,35.7,30.13,WNW,288,6.0,7.0,79,0.00,,,0.00,Wunderground v.1.15,2013-03-28 16:25:00,
2013-03-28 12:30:00,42.0,35.6,30.13,NW,304,5.0,7.0,78,0.00,,,0.00,Wunderground v.1.15,2013-03-28 16:30:00,
2013-03-28 12:40:00,42.3,35.9,30.13,WSW,245,6.0,6.0,78,0.00,,,0.00,Wunderground v.1.15,2013-03-28 16:40:00,
2013-03-28 12:50:00,42.2,35.2,30.13,West,265,6.0,6.0,76,0.00,,,0.00,Wunderground v.1.15,2013-03-28 16:50:00,
2013-03-28 13:00:00,42.1,35.1,30.13,WNW,291,5.0,5.0,76,0.00,,,0.00,Wunderground v.1.15,2013-03-28 17:00:00,
2013-03-28 13:10:00,42.1,34.1,30.12,WNW,296,6.0,9.0,73,0.00,,,0.00,Wunderground v.1.15,2013-03-28 17:10:00,
2013-03-28 13:20:00,42.2,33.5,30.12,WNW,296,6.0,6.0,71,0.00,,,0.00,Wunderground v.1.15,2013-03-28 17:20:00,
2013-03-28 13:30:00,42.1,33.4,30.12,WNW,290,5.0,5.0,71,0.00,,,0.00,Wunderground v.1.15,2013-03-28 17:30:00,
2013-03-28 13:35:00,42.2,33.8,30.12,WNW,288,5.0,8.0,72,0.00,,,0.00,Wunderground v.1.15,2013-03-28 17:35:00,
2013-03-28 13:45:00,41.8,33.4,30.12,WNW,284,7.0,13.0,72,0.00,,,0.00,Wunderground v.1.15,2013-03-28 17:45:00,
2013-03-28 13:50:00,41.6,33.6,30.13,West,280,7.0,7.0,73,0.00,,,0.00,Wunderground v.1.15,2013-03-28 17:50:00,
2013-03-28 14:00:00,41.4,33.4,30.12,West,280,5.0,5.0,73,0.00,,,0.00,Wunderground v.1.15,2013-03-28 18:00:00,
2013-03-28 14:10:00,41.4,33.7,30.12,WNW,286,5.0,5.0,74,0.00,,,0.00,Wunderground v.1.15,2013-03-28 18:10:00,
2013-03-28 14:25:00,41.4,33.7,30.13,WNW,295,4.0,9.0,74,0.00,,,0.00,Wunderground v.1.15,2013-03-28 18:25:00,
2013-03-28 14:35:00,41.3,33.3,30.13,NW,306,5.0,5.0,73,0.00,,,0.00,Wunderground v.1.15,2013-03-28 18:35:00,
2013-03-28 14:45:00,41.1,33.4,30.13,WNW,287,4.0,4.0,74,0.00,,,0.00,Wunderground v.1.15,2013-03-28 18:45:00,
2013-03-28 14:55:00,40.9,33.2,30.13,WNW,293,4.0,9.0,74,0.00,,,0.00,Wunderground v.1.15,2013-03-28 18:55:00,
2013-03-28 15:00:00,40.8,32.8,30.13,West,266,5.0,5.0,73,0.00,,,0.00,Wunderground v.1.15,2013-03-28 19:00:00,
2013-03-28 15:10:00,41.0,32.3,30.13,WNW,295,5.0,5.0,71,0.00,,,0.00,Wunderground v.1.15,2013-03-28 19:10:00,
2013-03-28 15:20:00,41.2,32.2,30.13,WNW,298,5.0,5.0,70,0.00,,,0.00,Wunderground v.1.15,2013-03-28 19:20:00,
2013-03-28 15:30:00,41.6,32.2,30.12,WNW,292,5.0,5.0,69,0.00,,,0.00,Wunderground v.1.15,2013-03-28 19:30:00,
2013-03-28 15:40:00,41.8,32.4,30.13,WNW,289,4.0,4.0,69,0.00,,,0.00,Wunderground v.1.15,2013-03-28 19:40:00,
2013-03-28 15:45:00,41.9,32.1,30.13,West,279,4.0,4.0,68,0.00,,,0.00,Wunderground v.1.15,2013-03-28 19:45:00,
2013-03-28 16:20:00,42.9,31.6,30.12,West,279,6.0,6.0,64,0.00,,,0.00,Wunderground v.1.15,2013-03-28 20:20:00,
2013-03-28 16:30:00,42.8,31.8,30.13,WNW,286,6.0,7.0,65,0.00,,,0.00,Wunderground v.1.15,2013-03-28 20:30:00,
2013-03-28 16:40:00,42.5,31.6,30.13,NW,304,4.0,4.0,65,0.00,,,0.00,Wunderground v.1.15,2013-03-28 20:40:00,
2013-03-28 16:50:00,42.2,31.3,30.14,WNW,286,5.0,5.0,65,0.00,,,0.00,Wunderground v.1.15,2013-03-28 20:50:00,
2013-03-28 17:00:00,42.2,31.3,30.14,WNW,292,4.0,4.0,65,0.00,,,0.00,Wunderground v.1.15,2013-03-28 21:00:00,
2013-03-28 17:10:00,42.3,31.0,30.14,WNW,284,5.0,5.0,64,0.00,,,0.00,Wunderground v.1.15,2013-03-28 21:10:00,
2013-03-28 17:20:00,42.4,34.0,30.14,WSW,258,4.0,5.0,72,0.00,,,0.00,Wunderground v.1.15,2013-03-28 21:20:00,
2013-03-28 17:25:00,42.2,34.2,30.14,WSW,254,4.0,5.0,73,0.00,,,0.00,Wunderground v.1.15,2013-03-28 21:25:00,
2013-03-28 17:35:00,41.6,33.9,30.14,WSW,251,4.0,6.0,74,0.00,,,0.00,Wunderground v.1.15,2013-03-28 21:35:00,
2013-03-28 17:40:00,41.4,34.1,30.14,WSW,253,3.0,3.0,75,0.00,,,0.00,Wunderground v.1.15,2013-03-28 21:40:00,
2013-03-28 17:50:00,41.1,34.1,30.14,West,275,2.0,2.0,76,0.00,,,0.00,Wunderground v.1.15,2013-03-28 21:50:00,
2013-03-28 18:00:00,41.0,33.7,30.15,WSW,252,4.0,4.0,75,0.00,,,0.00,Wunderground v.1.15,2013-03-28 22:00:00,
2013-03-28 18:10:00,40.9,33.9,30.15,WNW,284,3.0,4.0,76,0.00,,,0.00,Wunderground v.1.15,2013-03-28 22:10:00,
2013-03-28 18:15:00,40.8,33.8,30.15,West,280,3.0,4.0,76,0.00,,,0.00,Wunderground v.1.15,2013-03-28 22:15:00,
2013-03-28 18:25:00,40.6,33.3,30.15,West,279,4.0,8.0,75,0.00,,,0.00,Wunderground v.1.15,2013-03-28 22:25:00,
2013-03-28 18:35:00,40.5,33.2,30.15,WSW,248,4.0,5.0,75,0.00,,,0.00,Wunderground v.1.15,2013-03-28 22:35:00,
2013-03-28 18:45:00,40.4,33.4,30.16,WSW,252,4.0,6.0,76,0.00,,,0.00,Wunderground v.1.15,2013-03-28 22:45:00,
2013-03-28 18:55:00,40.2,33.2,30.16,West,277,3.0,5.0,76,0.00,,,0.00,Wunderground v.1.15,2013-03-28 22:55:00,
2013-03-28 19:05:00,40.1,33.1,30.17,West,276,4.0,6.0,76,0.00,,,0.00,Wunderground v.1.15,2013-03-28 23:05:00,
2013-03-28 19:15:00,40.0,33.0,30.17,West,281,3.0,3.0,76,0.00,,,0.00,Wunderground v.1.15,2013-03-28 23:15:00,
2013-03-28 19:25:00,39.9,33.3,30.17,West,265,2.0,3.0,77,0.00,,,0.00,Wunderground v.1.15,2013-03-28 23:25:00,
2013-03-28 19:35:00,39.7,33.1,30.17,West,264,3.0,4.0,77,0.00,,,0.00,Wunderground v.1.15,2013-03-28 23:35:00,
2013-03-28 19:45:00,39.5,33.2,30.18,West,265,3.0,3.0,78,0.00,,,0.00,Wunderground v.1.15,2013-03-28 23:45:00,
2013-03-28 19:55:00,39.3,33.0,30.18,West,275,3.0,4.0,78,0.00,,,0.00,Wunderground v.1.15,2013-03-28 23:55:00,
2013-03-28 20:05:00,39.1,33.1,30.18,West,270,2.0,3.0,79,0.00,,,0.00,Wunderground v.1.15,2013-03-29 00:05:00,
2013-03-28 20:10:00,39.1,33.1,30.18,West,267,1.0,2.0,79,0.00,,,0.00,Wunderground v.1.15,2013-03-29 00:10:00,
2013-03-28 20:15:00,38.9,32.9,30.18,West,280,2.0,5.0,79,0.00,,,0.00,Wunderground v.1.15,2013-03-29 00:15:00,
2013-03-28 20:25:00,38.8,33.2,30.19,West,271,2.0,2.0,80,0.00,,,0.00,Wunderground v.1.15,2013-03-29 00:25:00,
2013-03-28 20:35:00,38.7,33.4,30.19,West,272,2.0,2.0,81,0.00,,,0.00,Wunderground v.1.15,2013-03-29 00:35:00,
2013-03-28 20:45:00,38.6,33.3,30.19,West,272,3.0,4.0,81,0.00,,,0.00,Wunderground v.1.15,2013-03-29 00:45:00,
2013-03-28 20:55:00,38.4,33.1,30.19,WSW,254,3.0,5.0,81,0.00,,,0.00,Wunderground v.1.15,2013-03-29 00:55:00,
2013-03-28 21:05:00,38.2,33.2,30.19,West,279,3.0,3.0,82,0.00,,,0.00,Wunderground v.1.15,2013-03-29 01:05:00,
2013-03-28 21:10:00,38.1,33.1,30.19,West,276,4.0,5.0,82,0.00,,,0.00,Wunderground v.1.15,2013-03-29 01:10:00,
2013-03-28 21:20:00,38.0,33.0,30.19,West,275,2.0,2.0,82,0.00,,,0.00,Wunderground v.1.15,2013-03-29 01:20:00,
2013-03-28 21:30:00,37.9,33.2,30.19,West,274,2.0,6.0,83,0.00,,,0.00,Wunderground v.1.15,2013-03-29 01:30:00,
2013-03-28 21:35:00,37.8,33.1,30.20,West,273,2.0,6.0,83,0.00,,,0.00,Wunderground v.1.15,2013-03-29 01:35:00,
2013-03-28 21:45:00,37.7,33.0,30.20,West,271,2.0,3.0,83,0.00,,,0.00,Wunderground v.1.15,2013-03-29 01:45:00,
2013-03-28 21:50:00,37.7,33.3,30.20,West,269,2.0,2.0,84,0.00,,,0.00,Wunderground v.1.15,2013-03-29 01:50:00,
2013-03-28 22:00:00,37.6,33.2,30.20,West,261,3.0,3.0,84,0.00,,,0.00,Wunderground v.1.15,2013-03-29 02:00:00,
2013-03-28 22:05:00,37.5,33.1,30.20,West,261,2.0,3.0,84,0.00,,,0.00,Wunderground v.1.15,2013-03-29 02:05:00,
2013-03-28 22:15:00,37.5,33.1,30.20,West,261,3.0,3.0,84,0.00,,,0.00,Wunderground v.1.15,2013-03-29 02:15:00,
2013-03-28 22:25:00,37.4,33.0,30.20,West,271,3.0,3.0,84,0.00,,,0.00,Wunderground v.1.15,2013-03-29 02:25:00,
2013-03-28 22:35:00,37.3,32.9,30.20,West,269,2.0,3.0,84,0.00,,,0.00,Wunderground v.1.15,2013-03-29 02:35:00,
2013-03-28 22:40:00,37.3,32.9,30.20,West,273,3.0,5.0,84,0.00,,,0.00,Wunderground v.1.15,2013-03-29 02:40:00,
2013-03-28 22:45:00,37.3,32.9,30.20,West,275,3.0,5.0,84,0.00,,,0.00,Wunderground v.1.15,2013-03-29 02:45:00,
2013-03-28 22:50:00,37.4,33.0,30.20,West,273,3.0,3.0,84,0.00,,,0.00,Wunderground v.1.15,2013-03-29 02:50:00,
2013-03-28 23:00:00,37.4,33.0,30.20,West,267,2.0,2.0,84,0.00,,,0.00,Wunderground v.1.15,2013-03-29 03:00:00,
2013-03-28 23:10:00,37.4,33.0,30.19,WSW,258,3.0,3.0,84,0.00,,,0.00,Wunderground v.1.15,2013-03-29 03:10:00,
2013-03-28 23:20:00,37.3,32.9,30.20,WSW,254,3.0,3.0,84,0.00,,,0.00,Wunderground v.1.15,2013-03-29 03:20:00,
2013-03-28 23:25:00,37.3,32.9,30.19,WSW,254,2.0,3.0,84,0.00,,,0.00,Wunderground v.1.15,2013-03-29 03:25:00,
2013-03-28 23:35:00,37.2,33.1,30.19,West,260,2.0,3.0,85,0.00,,,0.00,Wunderground v.1.15,2013-03-29 03:35:00,
2013-03-28 23:45:00,37.2,33.1,30.20,WSW,254,3.0,4.0,85,0.00,,,0.00,Wunderground v.1.15,2013-03-29 03:45:00,
2013-03-28 23:50:00,37.1,33.0,30.20,WSW,253,2.0,2.0,85,0.00,,,0.00,Wunderground v.1.15,2013-03-29 03:50:00,